This is the latest recevied weather packets stored in our database for station/object DJ2DS-13. If no packets are shown the sender has not sent any weather packets the latest 10 day(s).
| Time | Temp. | Humidity | Pressure | Rain* | Wind** | Luminosity | Snow |
|---|---|---|---|---|---|---|---|
| 1777635403 | 21.11° C | 40% | 1025.2 hPa | 0 mm | - | 751 W/m² | - |
| 1777635102 | 21.11° C | 42% | 1025.2 hPa | 0 mm | - | 753 W/m² | - |
| 1777634802 | 21.11° C | 39% | 1025.3 hPa | 0 mm | - | 751 W/m² | - |
| 1777634503 | 21.11° C | 44% | 1025.4 hPa | 0 mm | - | 751 W/m² | - |
| 1777634202 | 21.11° C | 40% | 1025.3 hPa | 0 mm | - | 747 W/m² | - |
| 1777633903 | 21.11° C | 42% | 1025.5 hPa | 0 mm | - | 747 W/m² | - |
| 1777633601 | 20.56° C | 41% | 1025.3 hPa | 0 mm | - | 744 W/m² | - |
| 1777633301 | 20.56° C | 39% | 1025.5 hPa | 0 mm | - | 744 W/m² | - |
| 1777633001 | 20.56° C | 40% | 1025.6 hPa | 0 mm | - | 742 W/m² | - |
| 1777632702 | 20.56° C | 41% | 1025.8 hPa | 0 mm | - | 740 W/m² | - |
| 1777632402 | 20.56° C | 41% | 1025.8 hPa | 0 mm | - | 737 W/m² | - |
| 1777632102 | 20.56° C | 42% | 1025.8 hPa | 0 mm | - | 733 W/m² | - |
| 1777631797 | 20° C | 44% | 1025.8 hPa | 0 mm | - | 728 W/m² | - |
| 1777631498 | 20.56° C | 39% | 1025.9 hPa | 0 mm | - | 724 W/m² | - |
| 1777631197 | 20° C | 45% | 1026 hPa | 0 mm | - | 719 W/m² | - |
| 1777630897 | 20° C | 40% | 1026 hPa | 0 mm | - | 717 W/m² | - |
| 1777630597 | 20° C | 42% | 1026.1 hPa | 0 mm | - | 710 W/m² | - |
| 1777630296 | 19.44° C | 44% | 1026.2 hPa | 0 mm | - | 709 W/m² | - |
| 1777629996 | 19.44° C | 43% | 1026.1 hPa | 0 mm | - | 702 W/m² | - |
| 1777629697 | 19.44° C | 44% | 1026.2 hPa | 0 mm | - | 693 W/m² | - |
| 1777629397 | 19.44° C | 44% | 1026.3 hPa | 0 mm | - | 689 W/m² | - |
| 1777629096 | 18.89° C | 47% | 1026.4 hPa | 0 mm | - | 684 W/m² | - |
| 1777628794 | 18.89° C | 44% | 1026.5 hPa | 0 mm | - | 677 W/m² | - |
| 1777628494 | 18.89° C | 43% | 1026.5 hPa | 0 mm | - | 672 W/m² | - |
| 1777628196 | 18.89° C | 43% | 1026.5 hPa | 0 mm | - | 661 W/m² | - |
* Rain latest hour (hover to see other rain measurements)
** Current wind speed in m/s (hover to see current wind gust speed)